Location: Fort Collins
(40.5850°N, 105.0840°W)
Time: 22:15:58
(UTC-06:00)

Daily predictions for brighter satellites

Satellite Brightness Start Highest point End
(mag) Time Altitude Azimuth Time Altitude Azimuth Time Altitude Azimuth
IRS-1A Rocket 4.4 18:26:24 10° SSE 18:32:12 67° ENE 18:38:04 10° N
YAOGAN 1 2.7 18:30:30 10° SSE 18:34:40 51° ENE 18:38:53 10° N
CZ-2C R/B 4.3 18:30:35 10° SSW 18:34:45 34° W 18:38:59 10° NNW
Cosmos 1269 Rocket 4.4 18:30:43 10° S 18:35:40 42° ESE 18:40:38 10° NNE
Cosmos 1315 Rocket 3.0 18:32:13 10° N 18:36:16 56° ENE 18:40:19 10° SSE
BREEZE-M R/B 4.0 18:35:31 10° SSE 18:36:59 14° SE 18:38:41 10° E
Meteor 2-1 Rocket 4.3 18:31:19 10° S 18:37:07 76° E 18:43:02 10° NNE
Iridium 4 Rocket 4.3 18:34:13 10° SSE 18:39:21 36° E 18:44:41 10° NNE
Cosmos 1484 Rocket 2.9 18:36:11 10° S 18:39:53 75° WSW 18:43:37 10° NNW
Cosmos 468 4.5 18:35:05 10° SSW 18:40:17 78° ESE 18:45:32 10° NNE
PSLV R/B 4.1 18:41:38 10° SW 18:44:30 34° SSE 18:47:13 11° E
Cosmos 44 Rocket 3.2 18:41:04 10° SSW 18:45:46 88° SE 18:50:30 10° NNE
Cosmos 1452 Rocket 3.8 18:41:01 10° NNW 18:46:16 75° WSW 18:51:30 10° S
Cosmos 1908 3.2 18:42:38 10° S 18:46:31 68° E 18:50:24 10° NNE
Cosmos 2084 4.2 18:43:23 10° NNW 18:46:41 27° NE 18:50:02 10° ESE
Cosmos 1703 3.7 18:44:04 10° NNW 18:47:58 66° W 18:51:49 10° S
Cosmos 2333 4.3 18:44:05 10° NNW 18:49:47 62° ENE 18:55:28 10° SE
Cosmos 2221 2.5 18:46:13 10° S 18:50:28 60° E 18:54:47 10° NNE
SPOT 3 Rocket 3.7 18:47:38 10° SE 18:52:37 50° ENE 18:57:40 10° N
Cosmos 921 Rocket 3.5 18:50:05 10° NNW 18:54:29 68° WSW 18:58:46 10° S
Cosmos 2237 Rocket 3.2 18:50:47 10° N 18:55:31 26° NE 19:00:12 10° ESE
Cosmos 2237 4.5 18:50:13 10° NNW 18:55:57 77° WSW 19:01:39 10° SSE
H-2A R/B 4.4 18:55:29 12° E 18:57:25 16° ENE 18:59:54 10° NNE
Cosmos 1934 Rocket 4.5 18:52:34 10° SSE 18:58:21 38° E 19:04:09 10° NNE
CZ-2C R/B 4.3 18:56:54 10° N 19:01:19 58° WNW 19:05:39 10° SSW
Cosmos 1821 Rocket 4.1 18:56:02 10° SSE 19:02:01 54° E 19:08:07 10° NNE
Cosmos 2227 Rocket 3.1 18:57:54 10° SSE 19:02:30 27° ESE 19:07:10 10° NE
SKYMED 2 3.5 18:58:19 10° NNE 19:02:40 70° ESE 19:06:58 10° S
Cosmos 2239 Rocket 4.5 19:00:46 10° S 19:06:45 59° E 19:12:47 10° NNE
Cosmos 158 Rocket 4.3 19:02:01 10° SSW 19:07:04 68° WNW 19:12:17 10° NNE
Cosmos 2098 Rocket 3.6 19:02:53 10° S 19:07:36 64° E 19:13:38 10° NNE
Cosmos 1300 3.3 19:04:16 10° SSE 19:07:45 34° E 19:11:15 10° NNE
SL-16 R/B 3.8 19:05:28 10° NNE 19:08:42 15° NE 19:09:55 14° ENE
GP-B 4.1 19:05:23 10° N 19:09:41 50° W 19:13:58 10° SSW
Cosmos 2360 Rocket 4.0 19:09:43 10° NW 19:14:45 34° WSW 19:19:47 10° SSW
Abrixas 3.5 19:14:24 10° W 19:16:12 23° NNW 19:16:53 20° N
ALOS 2.2 19:13:36 10° SSE 19:18:11 61° ENE 19:22:48 10° N
Cosmos 1048 Rocket 4.4 19:14:38 10° SSW 19:19:43 64° WNW 19:24:49 10° NNE
Atlas Centaur 2 4.3 19:19:31 10° SSW 19:20:14 10° SSW 19:20:58 10° S
Gbstr 26 Del rocket 3.6 19:15:30 10° NW 19:20:29 84° SW 19:26:24 11° SE
Cosmos 1980 4.1 19:15:08 10° N 19:20:29 42° ENE 19:24:57 14° SE
FENGYUN 3A 3.6 19:18:09 10° SSE 19:23:30 68° ENE 19:28:53 10° N
Meteor 2-10 4.0 19:19:57 10° S 19:24:51 57° E 19:29:55 10° NNE
Cosmos 2251 Rocket 3.9 19:25:41 10° S 19:30:33 39° ESE 19:34:46 14° NE
Cosmos 1726 2.5 19:29:01 10° SSW 19:32:41 65° W 19:36:21 10° N
COSMOS 2428 3.4 19:27:17 10° NNW 19:32:50 56° WSW 19:38:22 10° S
BREEZE-M DEB (TANK) 3.8 19:31:32 10° WNW 19:33:01 17° NNW 19:33:19 17° N
Cosmos 2123 Rocket 4.0 19:27:41 10° N 19:33:54 61° E 19:40:07 10° SSE
Meteor 2-3 Rocket 4.5 19:29:31 10° N 19:34:33 30° ENE 19:35:42 28° E
Hubble Space Telescope 3.0 19:32:31 10° SSW 19:34:39 14° S 19:35:51 12° SSE
Cosmos 2219 3.8 19:29:05 10° SW 19:34:44 60° WNW 19:40:26 10° NNE
Cosmos 2333 Rocket 2.1 19:29:53 10° NNW 19:35:40 80° ENE 19:41:26 10° SSE
Cosmos 1605 Rocket 4.0 19:30:46 10° SSE 19:36:37 51° E 19:42:29 10° NNE
Cosmos 2297 Rocket 2.4 19:34:02 10° S 19:39:23 45° ESE 19:42:52 21° NE
BREEZE-M DEB (TANK) 4.0 19:20:02 10° WNW 19:39:35 65° NNE 19:42:20 31° E
NOSS 0 Rocket 3.8 19:33:42 10° NNW 19:39:53 77° ENE 19:46:01 10° SSE
SAR-Lupe-3 4.4 19:36:36 10° NNE 19:40:12 73° ESE 19:43:46 10° S
Sich 1 3.0 19:37:53 10° N 19:42:18 89° ENE 19:46:43 10° S
NOAA 12 4.4 19:41:27 10° S 19:46:43 68° WSW 19:52:03 10° NNW
COSMO-SKYMED 1 4.3 19:46:40 10° N 19:50:35 34° WNW 19:54:30 10° SW
Cosmos 2082 3.7 19:45:18 10° S 19:50:52 55° ESE 19:54:11 24° NE
USA 267 4.2 19:52:07 26° SE 19:52:07 26° SE 19:57:11 10° S
Thor Agena Rocket 3.3 19:47:13 10° NNE 19:52:19 81° ESE 19:57:21 10° SSW
Cosmos 1331 Rocket 3.8 19:47:40 10° NNW 19:52:56 82° ENE 19:56:57 17° SSE
Resurs 01 Rocket 3.7 19:58:52 15° NNE 19:58:52 15° NNE 19:59:45 10° N
Abrixas rocket 3.5 19:54:08 10° NW 19:56:28 32° NNW 19:56:28 32° NNW
Cosmos 2219 Rocket 2.9 19:55:23 10° NNW 20:00:50 53° WSW 20:06:16 10° S
Centaur D AC-29 3.4 20:02:04 10° WSW 20:07:13 18° SSW 20:08:57 15° S
FengYun 1-2 T 4.2 20:03:37 10° SSE 20:09:07 83° WSW 20:14:38 10° NNW
Cosmos 1447 Rocket 4.4 20:04:46 10° N 20:11:03 65° E 20:13:50 34° SSE
Cosmos 2228 Rocket 3.0 20:06:41 10° S 20:11:12 85° E 20:15:48 10° N
Cosmos 1328 Rocket 3.6 20:08:11 10° SSW 20:12:34 74° W 20:16:58 10° N
Cosmos 1633 Rocket 3.9 20:09:49 10° NNW 20:14:07 50° W 20:18:23 10° SSW
CZ-4C R/B 3.8 20:10:43 10° WSW 20:15:25 30° NW 20:20:44 10° NNE
Cosmos 1302 Rocket 3.8 20:17:54 10° NNW 20:23:10 86° ENE 20:23:12 86° E
Meteor 1-27 4.2 20:24:49 10° S 20:30:33 86° W 20:36:24 10° N
H-2A R/B 4.2 20:30:42 33° WSW 20:31:22 36° W 20:35:01 10° NNW
Lacrosse 5 rocket 4.2 20:35:38 10° N 20:35:43 10° N 20:35:43 10° N
Cosmos 2237 Rocket 3.0 20:34:20 10° NW 20:39:48 48° WSW 20:42:12 30° SSW
Cosmos 2227 Rocket 3.3 20:40:57 10° SW 20:46:18 43° WNW 20:49:59 19° N
BREEZE M DEB (TANK) 4.0 20:39:46 10° WNW 20:51:22 75° NW 20:51:22 75° NW
SL-16 R/B 2.9 20:47:55 10° NNW 20:51:50 46° NNW 20:51:50 46° NNW
MOS 1-B Rocket 4.2 20:53:43 61° SW 20:54:09 63° WSW 21:00:21 10° NNW
ATLAS 5 CENTAUR R/B 4.5 20:57:30 10° N 20:58:47 14° N 20:58:47 14° N
Cosmos 2297 Rocket 4.0 21:18:51 10° WSW 21:23:35 27° NW 21:24:47 25° NW
